Bookmark and Share
Track history (hours):
 

Hachinohemaru

Last reported at 2014-Apr-23 17:33 UTC. Time now 2014-Apr-25 06:21 UTC.
Position N 36°08' E 140°45'.

Length 168 m; draft 6.5 m.

Type: Cargo ship. MMSI: 431700018.

NotesDate/timePositionNaut miles runAvg speedWind from/ knotsBaromVisibWave heightAir tempDewpointWater temp
2014-Apr-23 17:33N 36°08' E 140°45'1312.8
2014-Apr-23 16:33N 35°56' E 140°42'1 0.5
2014-Apr-23 15:07N 35°56' E 140°41'0 0.0
2014-Apr-23 14:25N 35°56' E 140°41'0 0.0
2014-Apr-23 13:07N 35°56' E 140°41'0 0.1
2014-Apr-23 12:31N 35°56' E 140°41'0 0.0
2014-Apr-23 11:13N 35°56' E 140°41'2 0.3
2014-Apr-23 04:31N 35°57' E 140°42'33 9.6
2014-Apr-23 01:07N 35°25' E 140°46'2213.3
2014-Apr-22 23:27N 35°06' E 140°30'1613.6
2014-Apr-22 22:16N 34°57' E 140°14'1013.8
2014-Apr-22 21:34N 34°51' E 140°05'1413.3
2014-Apr-22 20:29N 34°44' E 139°50'  
2014-Apr-17 23:24N 34°39' E 139°32'1214.4
2014-Apr-17 22:32N 34°44' E 139°46'1414.1
2014-Apr-17 21:33N 34°49' E 140°02'1414.1
2014-Apr-17 20:33N 34°57' E 140°15'1413.7
2014-Apr-17 19:30N 35°06' E 140°29'1414.1
2014-Apr-17 18:32N 35°17' E 140°38'1313.4
2014-Apr-17 17:34N 35°28' E 140°47'1313.3
2014-Apr-17 16:33N 35°40' E 140°55'1312.9
2014-Apr-17 15:33N 35°52' E 140°50'8 7.2
2014-Apr-17 14:27N 35°56' E 140°41'0 0.0
2014-Apr-17 04:21N 35°55' E 140°41'  
2014-Apr-14 17:33N 36°06' E 140°46'1111.4
2014-Apr-14 16:33N 35°56' E 140°41'  

Dump ship's entire track history

sailing weather and tide predictions

Hachinohemaru — JE3089 — position and weather